TIME,DELAY(SENSOR),PRES,OXYGEN,RAWTEMP,T(OPTODE),TCPHASE,FLUOR,BETA(BETA700),BETA(BETA412),BETA(BETA440),CDOM,C(CSC),ED(ED412.40),ED(ED444.00),ED(ED489.70),ED(ED554.30),LU(LU411.80),LU(LU443.40),LU(LU489.60),LU(LU554.10),COMP,TILTX,TILTY,CHECK
1367467598,5805,826.6099853515625000,41.0312194824218750,654.4572753906250000,4.8102779388427730,54.7801704406738300,52,100,83,78,81,14745,2147749321,2147428772,2148011017,2147872932,2147639296,2147059062,2148257453,2147199414,2325,4,13,58534
1367471194,5809,867.2100219726562000,43.5640296936035160,659.9075927734375000,4.6310138702392580,54.4643898010253900,53,100,87,80,79,14745,2147755382,2147426203,2148010962,2147874688,2147641088,2147056091,2148258925,2147199021,731,4,13,53086
1367474794,5807,877.4299926757812000,43.7510986328125000,661.1450195312500000,4.5902690887451170,54.4487915039062500,52,103,88,79,79,14745,2147756534,2147426176,2148012608,2147876406,2147639561,2147057344,2148257188,2147197430,228,4,13,20281
1367478394,5810,907.3099975585938000,44.6742095947265600,665.1032104492188000,4.4598221778869630,54.3649711608886700,53,96,86,79,80,14747,2147757211,2147424603,2148010139,2147874550,2147638674,2147055990,2148257773,2147196480,184,4,13,19737
1367481994,5809,908.8300170898438000,44.6059494018554700,665.0557861328125000,4.4613862037658690,54.3730506896972660,52,99,87,79,79,14743,2147755968,2147423798,2148010230,2147874788,2147642404,2147055780,2148255305,2147197878,495,4,13,53119
1367485594,5808,917.5000000000000000,45.3431587219238300,666.2700805664062000,4.4213309288024900,54.2830886840820300,52,97,82,78,79,14747,2147758317,2147426404,2148008978,2147874066,2147639853,2147054857,2148255268,2147201225,96,4,13,36014
1367489194,5807,938.1900024414062000,46.8271713256835940,668.5369262695312000,4.3465161323547360,54.0978202819824200,54,99,89,79,80,14743,2147755638,2147423808,2148011227,2147873673,2147641956,2147057645,2148256713,2147200502,3571,4,13,38601
1367492794,5808,937.3400268554688000,46.7061996459960940,668.5426025390625000,4.3463292121887210,54.1116600036621100,52,101,83,80,80,14743,2147756352,2147424685,2148009618,2147873874,2147640512,2147055497,2148257280,2147197257,194,4,13,15012
1367496394,5805,936.7100219726562000,47.1907882690429700,670.2576293945312000,4.2896862030029300,54.0632591247558600,52,99,87,81,79,14744,2147756141,2147422098,2148012544,2147872722,2147641389,2147058084,2148256621,2147198683,158,4,13,12932
1367499994,5809,981.3099975585938000,47.9330902099609400,670.6118774414062000,4.2779831886291500,53.9657897949218750,52,99,86,79,78,14744,2147757202,2147425170,2148009124,2147876726,2147640640,2147054921,2148257289,2147196800,544,4,13,23998
1367503594,5812,981.0800170898438000,47.3825416564941400,670.5668945312500000,4.2794690132141110,54.0412483215332000,52,99,85,79,80,14744,2147756525,2147423771,2148010706,2147874770,2147641627,2147060918,2148258048,2147200475,44,4,13,7699
1367507194,5804,969.2500000000000000,47.6811790466308600,671.4025878906250000,4.2518539428710940,54.0095710754394500,53,100,86,79,80,14745,2147755373,2147428772,2148010002,2147873490,2147641453,2147057014,2148255552,2147196288,2932,4,13,65114
1367510794,5807,977.2800292968750000,48.2384300231933600,672.1192016601562000,4.2281670570373535,53.9431800842285160,52,98,84,79,80,14740,2147754532,2147424850,2148008109,2147875794,2147639670,2147053586,2148260681,2147199506,3491,4,13,6418
1367514394,5806,973.8699951171875000,48.3684997558593750,673.3380737304688000,4.1878638267517090,53.9385490417480500,52,98,87,79,81,14739,2147757952,2147425225,2148008173,2147875712,2147640429,2147058358,2148260818,2147201426,259,4,13,42352
1367517994,5811,979.2800292968750000,48.3481483459472660,672.4475097656250000,4.2173137664794920,53.9277992248535160,51,98,85,78,80,14737,2147756653,2147425892,2148010816,2147877120,2147639926,2147054281,2148262546,2147199890,261,4,13,48443
1367521594,5808,987.7299804687500000,47.7205200195312500,671.1851806640625000,4.2590370178222660,54.0034713745117200,53,101,85,78,79,14739,2147754669,2147424512,2148008219,2147872265,2147640649,2147060224,2148256640,2147200758,359,4,13,995
1367525194,5808,989.8300170898438000,47.2395896911621100,670.2091064453125000,4.2912898063659670,54.0592002868652340,51,98,85,81,79,14733,2147757275,2147427584,2148010139,2147875520,2147642560,2147059456,2148263104,2147199369,3497,4,13,8250
1367528794,5809,987.6699829101562000,47.2541885375976560,670.8890991210938000,4.2688241004943850,54.0666007995605500,52,98,88,78,80,14739,2147760256,2147426560,2148011428,2147873161,2147642121,2147055286,2148261156,2147199040,30,5,13,12856
1367532394,5812,980.7100219726562000,47.8022003173828100,672.1248168945312000,4.2279820442199710,54.0010490417480500,53,99,88,82,80,14737,2147754944,2147423296,2148010569,2147877302,2147638912,2147055140,2148257600,2147195867,310,4,13,34655
1367535994,5810,982.7700195312500000,48.2793197631835940,672.5784301757812000,4.2129840850830080,53.9399299621582000,51,97,84,80,80,14739,2147755739,2147423616,2148008685,2147872777,2147642715,2147056365,2148260562,2147198692,3334,4,13,62619
1367539594,5808,975.0700073242188000,48.1223182678222660,672.4425048828125000,4.2174801826477050,53.9604606628418000,52,99,85,78,80,14737,2147757065,2147424411,2148008804,2147875053,2147642806,2147056164,2148260882,2147200128,3188,4,13,16938
1367543194,5808,986.5800170898438000,47.5787506103515600,671.5861206054688000,4.2457900047302250,54.0270881652832000,52,98,87,79,81,14738,2147756544,2147425014,2148006930,2147873417,2147641517,2147058029,2148260589,2147202029,340,4,13,18792
1367546794,5806,989.3200073242188000,47.0033912658691400,670.1281738281250000,4.2939620018005370,54.0941200256347660,52,100,82,79,80,14737,2147757092,2147424457,2148010212,2147875401,2147641472,2147056018,2148253284,2147199945,3170,4,13,61928
1367550394,5805,993.0999755859375000,47.1714897155761700,670.3930053710938000,4.2852129936218260,54.0709495544433600,52,97,83,78,80,14736,2147754678,2147422317,2148007826,2147875574,2147641472,2147063250,2148257545,2147199286,3258,4,13,61074
1367553994,5807,988.1500244140625000,46.8330688476562500,670.1707763671875000,4.2925548553466800,54.1152915954589840,52,101,83,79,80,14736,2147758436,2147427136,2148008923,2147873133,2147642413,2147059108,2148254189,2147198217,3392,4,13,61696
1367557594,5807,983.7800292968750000,47.2892684936523440,671.4375000000000000,4.2506999969482420,54.0656013488769500,52,99,85,79,80,14734,2147758473,2147422336,2148008749,2147875346,2147640630,2147058441,2148257088,2147199268,3546,4,13,48938
1367561194,5811,982.8699951171875000,47.6460494995117200,672.3770751953125000,4.2196412086486820,54.0262489318847660,53,99,87,79,79,14731,2147753243,2147427611,2148009563,2147875492,2147641517,2147058797,2148259328,2147200192,87,4,13,36423
1367564794,5807,979.3099975585938000,47.7950286865234400,672.3748168945312000,4.2197189331054690,54.0098495483398440,52,99,87,79,80,14733,2147756562,2147422125,2148010505,2147876352,2147641042,2147052918,2148255734,2147198692,163,4,13,16798
1367568394,5809,983.2999877929688000,48.3243103027343750,672.9833984375000000,4.1995940208435060,53.9381484985351560,51,108,85,79,81,14731,2147756434,2147422564,2148010230,2147874468,2147642779,2147054080,2148258706,2147199241,1589,4,13,30335
1367571994,5810,986.0100097656250000,47.6749000549316400,672.8041992187500000,4.2055211067199710,54.0267601013183600,52,101,87,79,80,14729,2147757622,2147426020,2148009133,2147873078,2147642413,2147055478,2148258176,2147200137,356,4,13,6321
1367575594,5809,980.9299926757812000,47.9244499206543000,673.4428100585938000,4.1844019889831540,54.0037384033203100,52,100,86,81,80,14732,2147759149,2147424713,2148011766,2147876717,2147641307,2147052141,2148258834,2147200402,3593,4,13,53367
1367579194,5808,980.0300292968750000,48.3855209350585940,673.6688232421875000,4.1769261360168460,53.9388084411621100,52,99,84,79,81,14731,2147755958,2147424603,2148011556,2147874825,2147644370,2147058715,2148255104,2147198838,3586,4,13,37915
1367582794,5755,984.4099731445312000,48.6923294067382800,673.8010253906250000,4.1725559234619140,53.9026184082031250,51,96,89,80,79,14727,2147755364,2147426038,2148007908,2147873664,2147645449,2147053202,2148258386,2147200585,3578,4,13,52406
1367586394,5808,993.8400268554688000,48.7373085021972660,672.7139282226562000,4.2085041999816895,53.8812484741210940,53,98,85,78,80,14726,2147755977,2147424813,2148009536,2147872347,2147643940,2147057298,2148258102,2147202934,992,4,13,51640
1367589994,5808,992.8099975585938000,47.7847900390625000,672.3272705078125000,4.2212848663330080,54.0069313049316400,53,98,84,79,79,14722,2147757147,2147423908,2148009910,2147875794,2147646802,2147061129,2148255360,2147202678,3101,4,13,23144
1367593594,5807,995.5100097656250000,47.1365585327148440,670.3496704101562000,4.2866458892822270,54.0786209106445300,52,101,88,78,80,14725,2147757595,2147423936,2148009453,2147873581,2147644562,2147055085,2148258386,2147200768,487,4,13,63089
1367597194,5808,981.4699707031250000,47.3653717041015600,671.9066162109375000,4.2351951599121090,54.0638389587402340,52,98,85,80,80,14724,2147754605,2147423387,2148007542,2147873810,2147642258,2147055616,2148255213,2147199021,463,4,13,49533
1367600794,5807,985.5399780273438000,47.7683982849121100,672.2756958007812000,4.2229919433593750,54.0055503845214840,53,104,88,79,80,14725,2147760786,2147425837,2148009344,2147874477,2147639954,2147063597,2148255643,2147199643,199,4,13,53119
1367604394,5806,985.6500244140625000,47.3517112731933600,672.5211791992188000,4.2148780822753910,54.0748291015625000,53,96,86,78,81,14723,2147757915,2147423195,2148010532,2147875739,2147641682,2147056786,2148255597,2147196708,3549,4,13,17138
1367607994,5809,991.3800048828125000,47.5345191955566400,671.9390869140625000,4.2341208457946780,54.0362510681152340,52,100,87,79,80,14722,2147757339,2147425353,2148010916,2147876132,2147640777,2147059849,2148258852,2147199222,3469,4,13,64192
1367611594,5810,990.4299926757812000,47.5592002868652340,671.8776245117188000,4.2361550331115720,54.0355110168457000,52,100,85,78,79,14721,2147757056,2147426468,2148010404,2147873956,2147642002,2147060132,2148257645,2147205476,227,4,13,47434
1367611856,5810,990.3300170898438000,47.5289192199707000,671.8109130859375000,4.2383580207824710,54.0354385375976560,52,97,87,83,80,14725,2147750290,2147425920,2148009682,2147872484,2147645028,2147053933,2148260653,2147200091,377,4,13,55114
